Вернуться в каталог

IRIDIUM 33 DEB

АктивенPO
NORAD 37565·DEBRIS·🇺🇸 United States

Запущен Sep 14, 1997 с Baikonur Cosmodrome

Loading…

Ближайшие Пролёты (ближайшие 24 часа)

TLE

СвежийSource: Space-Track

Эпоха: Sep 12, 2026, 05:56 UTC

1 37565U 97051YA  26255.24780131  .00001164  00000-0  27945-3 0  9996
2 37565  86.3436 250.2905 0010293 237.9572 122.0635 14.52579954698060

Отслеживайте IRIDIUM 33 DEB в реальном времени с AllMySat

Download on the App Store